owner,sensor,date,latitude,longitude,vertical_datum,wind_speed,wind_to_direction,wind_speed_of_gust,qcFlag 
FIT,ioos:station:wmo:SIPF1:1,2014-10-01T00:00:00Z,27.8620,-80.4450,1.0,2.3,280.0,99.0,'11111222,11111222,11144222' 
FIT,ioos:station:wmo:SIPF1:1,2014-10-01T00:15:00Z,27.8620,-80.4450,1.0,2.1,286.0,99.0,'11111222,11111222,11144222' 
FIT,ioos:station:wmo:SIPF1:1,2014-10-01T00:30:00Z,27.8620,-80.4450,1.0,3.0,251.0,99.0,'11111222,11111222,11144222' 
FIT,ioos:station:wmo:SIPF1:1,2014-10-01T00:45:00Z,27.8620,-80.4450,1.0,3.2,231.0,99.0,'11111222,11111222,11144222' 
FIT,ioos:station:wmo:SIPF1:1,2014-10-01T01:00:00Z,27.8620,-80.4450,1.0,2.6,268.0,99.0,'11111222,11111222,11144222' 
FIT,ioos:station:wmo:SIPF1:1,2014-10-01T01:15:00Z,27.8620,-80.4450,1.0,2.1,311.0,99.0,'11111222,11111222,11144222' 
FIT,ioos:station:wmo:SIPF1:1,2014-10-01T01:30:00Z,27.8620,-80.4450,1.0,2.2,302.0,99.0,'11111222,11111222,11144222' 
FIT,ioos:station:wmo:SIPF1:1,2014-10-01T01:45:00Z,27.8620,-80.4450,1.0,2.2,287.0,99.0,'11111222,11111222,11144222' 
FIT,ioos:station:wmo:SIPF1:1,2014-10-01T02:00:00Z,27.8620,-80.4450,1.0,1.6,274.0,99.0,'11111222,11111222,11144222' 
FIT,ioos:station:wmo:SIPF1:1,2014-10-01T02:15:00Z,27.8620,-80.4450,1.0,1.9,282.0,99.0,'11111222,11111222,11144222' 
FIT,ioos:station:wmo:SIPF1:1,2014-10-01T02:30:00Z,27.8620,-80.4450,1.0,2.2,299.0,99.0,'11111222,11111222,11144222' 
FIT,ioos:station:wmo:SIPF1:1,2014-10-01T02:45:00Z,27.8620,-80.4450,1.0,2.4,279.0,99.0,'11111222,11111222,11144222' 
FIT,ioos:station:wmo:SIPF1:1,2014-10-01T03:00:00Z,27.8620,-80.4450,1.0,2.0,282.0,99.0,'11111222,11111222,11144222' 
FIT,ioos:station:wmo:SIPF1:1,2014-10-01T03:15:00Z,27.8620,-80.4450,1.0,2.4,282.0,99.0,'11111222,11111222,11144222' 
FIT,ioos:station:wmo:SIPF1:1,2014-10-01T03:30:00Z,27.8620,-80.4450,1.0,2.2,262.0,99.0,'11111222,11111222,11144222' 
FIT,ioos:station:wmo:SIPF1:1,2014-10-01T03:45:00Z,27.8620,-80.4450,1.0,1.9,269.0,99.0,'11111222,11111222,11144222' 
FIT,ioos:station:wmo:SIPF1:1,2014-10-01T04:00:00Z,27.8620,-80.4450,1.0,1.7,266.0,99.0,'11111222,11111222,11144222' 
FIT,ioos:station:wmo:SIPF1:1,2014-10-01T04:15:00Z,27.8620,-80.4450,1.0,1.8,259.0,99.0,'11111222,11111222,11144222' 
FIT,ioos:station:wmo:SIPF1:1,2014-10-01T04:30:00Z,27.8620,-80.4450,1.0,1.6,274.0,99.0,'11111222,11111222,11144222' 
FIT,ioos:station:wmo:SIPF1:1,2014-10-01T04:45:00Z,27.8620,-80.4450,1.0,1.9,270.0,99.0,'11111222,11111222,11144222' 
FIT,ioos:station:wmo:SIPF1:1,2014-10-01T05:00:00Z,27.8620,-80.4450,1.0,1.8,270.0,99.0,'11111222,11111222,11144222' 
FIT,ioos:station:wmo:SIPF1:1,2014-10-01T05:15:00Z,27.8620,-80.4450,1.0,1.9,250.0,99.0,'11111222,11111222,11144222' 
FIT,ioos:station:wmo:SIPF1:1,2014-10-01T05:30:00Z,27.8620,-80.4450,1.0,2.4,252.0,99.0,'11111222,11111222,11144222' 
FIT,ioos:station:wmo:SIPF1:1,2014-10-01T05:45:00Z,27.8620,-80.4450,1.0,2.3,256.0,99.0,'11111222,11111222,11144222' 
FIT,ioos:station:wmo:SIPF1:1,2014-10-01T06:00:00Z,27.8620,-80.4450,1.0,2.3,255.0,99.0,'11111222,11111222,11144222' 
FIT,ioos:station:wmo:SIPF1:1,2014-10-01T06:15:00Z,27.8620,-80.4450,1.0,2.5,273.0,99.0,'11111222,11111222,11144222' 
FIT,ioos:station:wmo:SIPF1:1,2014-10-01T06:30:00Z,27.8620,-80.4450,1.0,2.4,267.0,99.0,'11111222,11111222,11144222' 
FIT,ioos:station:wmo:SIPF1:1,2014-10-01T06:45:00Z,27.8620,-80.4450,1.0,2.2,257.0,99.0,'11111222,11111222,11144222' 
FIT,ioos:station:wmo:SIPF1:1,2014-10-01T07:00:00Z,27.8620,-80.4450,1.0,2.1,254.0,99.0,'11111222,11111222,11144222' 
FIT,ioos:station:wmo:SIPF1:1,2014-10-01T07:15:00Z,27.8620,-80.4450,1.0,2.1,250.0,99.0,'11111222,11111222,11144222' 
FIT,ioos:station:wmo:SIPF1:1,2014-10-01T07:30:00Z,27.8620,-80.4450,1.0,1.9,248.0,99.0,'11111222,11111222,11144222' 
FIT,ioos:station:wmo:SIPF1:1,2014-10-01T07:45:00Z,27.8620,-80.4450,1.0,1.6,260.0,99.0,'11111222,11111222,11144222' 
FIT,ioos:station:wmo:SIPF1:1,2014-10-01T08:00:00Z,27.8620,-80.4450,1.0,2.2,248.0,99.0,'11111222,11111222,11144222' 
FIT,ioos:station:wmo:SIPF1:1,2014-10-01T08:15:00Z,27.8620,-80.4450,1.0,2.6,250.0,99.0,'11111222,11111222,11144222' 
FIT,ioos:station:wmo:SIPF1:1,2014-10-01T08:30:00Z,27.8620,-80.4450,1.0,2.3,255.0,99.0,'11111222,11111222,11144222' 
FIT,ioos:station:wmo:SIPF1:1,2014-10-01T08:45:00Z,27.8620,-80.4450,1.0,2.6,253.0,99.0,'11111222,11111222,11144222' 
FIT,ioos:station:wmo:SIPF1:1,2014-10-01T09:00:00Z,27.8620,-80.4450,1.0,2.5,260.0,99.0,'11111222,11111222,11144222' 
FIT,ioos:station:wmo:SIPF1:1,2014-10-01T09:15:00Z,27.8620,-80.4450,1.0,3.0,260.0,99.0,'11111222,11111222,11144222' 
FIT,ioos:station:wmo:SIPF1:1,2014-10-01T09:30:00Z,27.8620,-80.4450,1.0,2.4,268.0,99.0,'11111222,11111222,11144222' 
FIT,ioos:station:wmo:SIPF1:1,2014-10-01T09:45:00Z,27.8620,-80.4450,1.0,1.8,273.0,99.0,'11111222,11111222,11144222' 
FIT,ioos:station:wmo:SIPF1:1,2014-10-01T10:00:00Z,27.8620,-80.4450,1.0,2.0,268.0,99.0,'11111222,11111222,11144222' 
FIT,ioos:station:wmo:SIPF1:1,2014-10-01T10:15:00Z,27.8620,-80.4450,1.0,2.2,264.0,99.0,'11111222,11111222,11144222' 
FIT,ioos:station:wmo:SIPF1:1,2014-10-01T10:30:00Z,27.8620,-80.4450,1.0,2.3,262.0,99.0,'11111222,11111222,11144222' 
FIT,ioos:station:wmo:SIPF1:1,2014-10-01T10:45:00Z,27.8620,-80.4450,1.0,1.9,266.0,99.0,'11111222,11111222,11144222' 
FIT,ioos:station:wmo:SIPF1:1,2014-10-01T11:00:00Z,27.8620,-80.4450,1.0,2.3,253.0,99.0,'11111222,11111222,11144222' 
FIT,ioos:station:wmo:SIPF1:1,2014-10-01T11:15:00Z,27.8620,-80.4450,1.0,1.8,258.0,99.0,'11111222,11111222,11144222' 
FIT,ioos:station:wmo:SIPF1:1,2014-10-01T11:30:00Z,27.8620,-80.4450,1.0,1.7,268.0,99.0,'11111222,11111222,11144222' 
FIT,ioos:station:wmo:SIPF1:1,2014-10-01T11:45:00Z,27.8620,-80.4450,1.0,1.3,279.0,99.0,'11111222,11111222,11144222' 
FIT,ioos:station:wmo:SIPF1:1,2014-10-01T12:00:00Z,27.8620,-80.4450,1.0,1.3,274.0,99.0,'11111222,11111222,11144222' 
FIT,ioos:station:wmo:SIPF1:1,2014-10-01T12:15:00Z,27.8620,-80.4450,1.0,1.6,272.0,99.0,'11111222,11111222,11144222' 
FIT,ioos:station:wmo:SIPF1:1,2014-10-01T12:30:00Z,27.8620,-80.4450,1.0,1.5,283.0,99.0,'11111222,11111222,11144222' 
FIT,ioos:station:wmo:SIPF1:1,2014-10-01T12:45:00Z,27.8620,-80.4450,1.0,1.7,291.0,99.0,'11111222,11111222,11144222' 
FIT,ioos:station:wmo:SIPF1:1,2014-10-01T13:00:00Z,27.8620,-80.4450,1.0,1.9,256.0,99.0,'11111222,11111222,11144222' 
FIT,ioos:station:wmo:SIPF1:1,2014-10-01T13:15:00Z,27.8620,-80.4450,1.0,1.6,255.0,99.0,'11111222,11111222,11144222' 
FIT,ioos:station:wmo:SIPF1:1,2014-10-01T13:30:00Z,27.8620,-80.4450,1.0,1.5,303.0,99.0,'11111222,11111222,11144222' 
FIT,ioos:station:wmo:SIPF1:1,2014-10-01T13:45:00Z,27.8620,-80.4450,1.0,1.4,279.0,99.0,'11111222,11111222,11144222' 
FIT,ioos:station:wmo:SIPF1:1,2014-10-01T14:00:00Z,27.8620,-80.4450,1.0,1.3,256.0,99.0,'11111222,11111222,11144222' 
FIT,ioos:station:wmo:SIPF1:1,2014-10-01T14:15:00Z,27.8620,-80.4450,1.0,0.7,250.0,99.0,'11111222,11111222,11144222' 
FIT,ioos:station:wmo:SIPF1:1,2014-10-01T14:30:00Z,27.8620,-80.4450,1.0,0.4,252.0,99.0,'11111222,11111222,11144222' 
FIT,ioos:station:wmo:SIPF1:1,2014-10-01T14:45:00Z,27.8620,-80.4450,1.0,0.3,252.0,99.0,'11111222,11111222,11144222' 
FIT,ioos:station:wmo:SIPF1:1,2014-10-01T15:00:00Z,27.8620,-80.4450,1.0,1.6,192.0,99.0,'11111222,11111222,11144222' 
FIT,ioos:station:wmo:SIPF1:1,2014-10-01T15:15:00Z,27.8620,-80.4450,1.0,1.4,114.0,99.0,'11111222,11111222,11144222' 
FIT,ioos:station:wmo:SIPF1:1,2014-10-01T15:30:00Z,27.8620,-80.4450,1.0,2.0,85.0,99.0,'11111222,11111222,11144222' 
FIT,ioos:station:wmo:SIPF1:1,2014-10-01T15:45:00Z,27.8620,-80.4450,1.0,1.8,64.0,99.0,'11111222,11111222,11144222' 
FIT,ioos:station:wmo:SIPF1:1,2014-10-01T16:00:00Z,27.8620,-80.4450,1.0,1.2,69.0,99.0,'11111222,11111222,11144222' 
FIT,ioos:station:wmo:SIPF1:1,2014-10-01T16:15:00Z,27.8620,-80.4450,1.0,2.1,84.0,99.0,'11111222,11111222,11144222' 
FIT,ioos:station:wmo:SIPF1:1,2014-10-01T16:30:00Z,27.8620,-80.4450,1.0,3.3,83.0,99.0,'11111222,11111222,11144222' 
FIT,ioos:station:wmo:SIPF1:1,2014-10-01T16:45:00Z,27.8620,-80.4450,1.0,3.8,56.0,99.0,'11111222,11111222,11144222' 
FIT,ioos:station:wmo:SIPF1:1,2014-10-01T17:00:00Z,27.8620,-80.4450,1.0,3.9,63.0,99.0,'11111222,11111222,11144222' 
FIT,ioos:station:wmo:SIPF1:1,2014-10-01T17:15:00Z,27.8620,-80.4450,1.0,4.0,60.0,99.0,'11111222,11111222,11144222' 
FIT,ioos:station:wmo:SIPF1:1,2014-10-01T17:30:00Z,27.8620,-80.4450,1.0,4.5,54.0,99.0,'11111222,11111222,11144222' 
FIT,ioos:station:wmo:SIPF1:1,2014-10-01T17:45:00Z,27.8620,-80.4450,1.0,5.1,3.0,99.0,'11111222,11111222,11144222' 
FIT,ioos:station:wmo:SIPF1:1,2014-10-01T18:00:00Z,27.8620,-80.4450,1.0,3.2,19.0,99.0,'11111222,11111222,11144222' 
FIT,ioos:station:wmo:SIPF1:1,2014-10-01T18:15:00Z,27.8620,-80.4450,1.0,3.4,14.0,99.0,'11111222,11111222,11144222' 
FIT,ioos:station:wmo:SIPF1:1,2014-10-01T18:30:00Z,27.8620,-80.4450,1.0,2.4,8.0,99.0,'11111222,11111222,11144222' 
FIT,ioos:station:wmo:SIPF1:1,2014-10-01T18:45:00Z,27.8620,-80.4450,1.0,2.5,44.0,99.0,'11111222,11111222,11144222' 
FIT,ioos:station:wmo:SIPF1:1,2014-10-01T19:00:00Z,27.8620,-80.4450,1.0,3.8,65.0,99.0,'11111222,11111222,11144222' 
FIT,ioos:station:wmo:SIPF1:1,2014-10-01T19:15:00Z,27.8620,-80.4450,1.0,5.1,47.0,99.0,'11111222,11111222,11144222' 
FIT,ioos:station:wmo:SIPF1:1,2014-10-01T19:30:00Z,27.8620,-80.4450,1.0,4.5,45.0,99.0,'11111222,11111222,11144222' 
FIT,ioos:station:wmo:SIPF1:1,2014-10-01T19:45:00Z,27.8620,-80.4450,1.0,4.1,49.0,99.0,'11111222,11111222,11144222' 
FIT,ioos:station:wmo:SIPF1:1,2014-10-01T20:00:00Z,27.8620,-80.4450,1.0,4.4,47.0,99.0,'11111222,11111222,11144222' 
FIT,ioos:station:wmo:SIPF1:1,2014-10-01T20:15:00Z,27.8620,-80.4450,1.0,4.9,43.0,99.0,'11111222,11111222,11144222' 
FIT,ioos:station:wmo:SIPF1:1,2014-10-01T20:30:00Z,27.8620,-80.4450,1.0,4.8,47.0,99.0,'11111222,11111222,11144222' 
FIT,ioos:station:wmo:SIPF1:1,2014-10-01T20:45:00Z,27.8620,-80.4450,1.0,4.9,50.0,99.0,'11111222,11111222,11144222' 
FIT,ioos:station:wmo:SIPF1:1,2014-10-01T21:00:00Z,27.8620,-80.4450,1.0,4.6,40.0,99.0,'11111222,11111222,11144222' 
FIT,ioos:station:wmo:SIPF1:1,2014-10-01T21:15:00Z,27.8620,-80.4450,1.0,4.5,43.0,99.0,'11111222,11111222,11144222' 
FIT,ioos:station:wmo:SIPF1:1,2014-10-01T21:30:00Z,27.8620,-80.4450,1.0,3.8,51.0,99.0,'11111222,11111222,11144222' 
FIT,ioos:station:wmo:SIPF1:1,2014-10-01T21:45:00Z,27.8620,-80.4450,1.0,3.6,56.0,99.0,'11111222,11111222,11144222' 
FIT,ioos:station:wmo:SIPF1:1,2014-10-01T22:00:00Z,27.8620,-80.4450,1.0,3.0,57.0,99.0,'11111222,11111222,11144222' 
FIT,ioos:station:wmo:SIPF1:1,2014-10-01T22:15:00Z,27.8620,-80.4450,1.0,3.8,44.0,99.0,'11111222,11111222,11144222' 
FIT,ioos:station:wmo:SIPF1:1,2014-10-01T22:30:00Z,27.8620,-80.4450,1.0,4.8,4.0,99.0,'11111222,11111222,11144222' 
FIT,ioos:station:wmo:SIPF1:1,2014-10-01T22:45:00Z,27.8620,-80.4450,1.0,1.9,85.0,99.0,'11111222,11111222,11144222' 
FIT,ioos:station:wmo:SIPF1:1,2014-10-01T23:00:00Z,27.8620,-80.4450,1.0,1.7,95.0,99.0,'11111222,11111222,11144222' 
FIT,ioos:station:wmo:SIPF1:1,2014-10-01T23:15:00Z,27.8620,-80.4450,1.0,1.9,52.0,99.0,'11111222,11111222,11144222' 
FIT,ioos:station:wmo:SIPF1:1,2014-10-01T23:30:00Z,27.8620,-80.4450,1.0,3.2,11.0,99.0,'11111222,11111222,11144222' 
FIT,ioos:station:wmo:SIPF1:1,2014-10-01T23:45:00Z,27.8620,-80.4450,1.0,3.9,16.0,99.0,'11111222,11111222,11144222' 
FIT,ioos:station:wmo:SIPF1:1,2014-10-02T00:00:00Z,27.8620,-80.4450,1.0,3.0,40.0,99.0,'11111222,11111222,11144222' 
FIT,ioos:station:wmo:SIPF1:1,2014-10-02T00:15:00Z,27.8620,-80.4450,1.0,2.7,48.0,99.0,'11111222,11111222,11144222' 
FIT,ioos:station:wmo:SIPF1:1,2014-10-02T00:30:00Z,27.8620,-80.4450,1.0,2.2,60.0,99.0,'11111222,11111222,11144222' 
FIT,ioos:station:wmo:SIPF1:1,2014-10-02T00:45:00Z,27.8620,-80.4450,1.0,2.0,60.0,99.0,'11111222,11111222,11144222' 
FIT,ioos:station:wmo:SIPF1:1,2014-10-02T01:00:00Z,27.8620,-80.4450,1.0,1.9,45.0,99.0,'11111222,11111222,11144222' 
FIT,ioos:station:wmo:SIPF1:1,2014-10-02T01:15:00Z,27.8620,-80.4450,1.0,1.5,32.0,99.0,'11111222,11111222,11144222' 
FIT,ioos:station:wmo:SIPF1:1,2014-10-02T01:30:00Z,27.8620,-80.4450,1.0,2.0,10.0,99.0,'11111222,11111222,11144222' 
FIT,ioos:station:wmo:SIPF1:1,2014-10-02T01:45:00Z,27.8620,-80.4450,1.0,2.2,360.0,99.0,'11111222,11144222,11144222' 
FIT,ioos:station:wmo:SIPF1:1,2014-10-02T02:00:00Z,27.8620,-80.4450,1.0,2.1,347.0,99.0,'11111222,11111222,11144222' 
FIT,ioos:station:wmo:SIPF1:1,2014-10-02T02:15:00Z,27.8620,-80.4450,1.0,1.1,292.0,99.0,'11111222,11111222,11144222' 
FIT,ioos:station:wmo:SIPF1:1,2014-10-02T02:30:00Z,27.8620,-80.4450,1.0,0.5,283.0,99.0,'11111222,11111222,11144222' 
FIT,ioos:station:wmo:SIPF1:1,2014-10-02T02:45:00Z,27.8620,-80.4450,1.0,2.1,231.0,99.0,'11111222,11111222,11144222' 
FIT,ioos:station:wmo:SIPF1:1,2014-10-02T03:00:00Z,27.8620,-80.4450,1.0,2.0,235.0,99.0,'11111222,11111222,11144222' 
FIT,ioos:station:wmo:SIPF1:1,2014-10-02T03:15:00Z,27.8620,-80.4450,1.0,2.0,234.0,99.0,'11111222,11111222,11144222' 
FIT,ioos:station:wmo:SIPF1:1,2014-10-02T03:30:00Z,27.8620,-80.4450,1.0,2.2,240.0,99.0,'11111222,11111222,11144222' 
FIT,ioos:station:wmo:SIPF1:1,2014-10-02T03:45:00Z,27.8620,-80.4450,1.0,2.4,248.0,99.0,'11111222,11111222,11144222' 
FIT,ioos:station:wmo:SIPF1:1,2014-10-02T04:00:00Z,27.8620,-80.4450,1.0,1.8,262.0,99.0,'11111222,11111222,11144222' 
FIT,ioos:station:wmo:SIPF1:1,2014-10-02T04:15:00Z,27.8620,-80.4450,1.0,2.5,272.0,99.0,'11111222,11111222,11144222' 
FIT,ioos:station:wmo:SIPF1:1,2014-10-02T04:30:00Z,27.8620,-80.4450,1.0,2.7,280.0,99.0,'11111222,11111222,11144222' 
FIT,ioos:station:wmo:SIPF1:1,2014-10-02T04:45:00Z,27.8620,-80.4450,1.0,2.5,278.0,99.0,'11111222,11111222,11144222' 
FIT,ioos:station:wmo:SIPF1:1,2014-10-02T05:00:00Z,27.8620,-80.4450,1.0,2.4,274.0,99.0,'11111222,11111222,11144222' 
FIT,ioos:station:wmo:SIPF1:1,2014-10-02T05:15:00Z,27.8620,-80.4450,1.0,2.6,271.0,99.0,'11111222,11111222,11144222' 
FIT,ioos:station:wmo:SIPF1:1,2014-10-02T05:30:00Z,27.8620,-80.4450,1.0,2.9,286.0,99.0,'11111222,11111222,11144222' 
FIT,ioos:station:wmo:SIPF1:1,2014-10-02T05:45:00Z,27.8620,-80.4450,1.0,2.8,281.0,99.0,'11111222,11111222,11144222' 
FIT,ioos:station:wmo:SIPF1:1,2014-10-02T06:00:00Z,27.8620,-80.4450,1.0,3.0,292.0,99.0,'11111222,11111222,11144222' 
FIT,ioos:station:wmo:SIPF1:1,2014-10-02T06:15:00Z,27.8620,-80.4450,1.0,2.5,292.0,99.0,'11111222,11111222,11144222' 
FIT,ioos:station:wmo:SIPF1:1,2014-10-02T06:30:00Z,27.8620,-80.4450,1.0,2.6,288.0,99.0,'11111222,11111222,11144222' 
FIT,ioos:station:wmo:SIPF1:1,2014-10-02T06:45:00Z,27.8620,-80.4450,1.0,2.8,288.0,99.0,'11111222,11111222,11144222' 
FIT,ioos:station:wmo:SIPF1:1,2014-10-02T07:00:00Z,27.8620,-80.4450,1.0,3.4,295.0,99.0,'11111222,11111222,11144222' 
FIT,ioos:station:wmo:SIPF1:1,2014-10-02T07:15:00Z,27.8620,-80.4450,1.0,3.0,300.0,99.0,'11111222,11111222,11144222' 
FIT,ioos:station:wmo:SIPF1:1,2014-10-02T07:30:00Z,27.8620,-80.4450,1.0,2.6,296.0,99.0,'11111222,11111222,11144222' 
FIT,ioos:station:wmo:SIPF1:1,2014-10-02T07:45:00Z,27.8620,-80.4450,1.0,2.5,291.0,99.0,'11111222,11111222,11144222' 
FIT,ioos:station:wmo:SIPF1:1,2014-10-02T08:00:00Z,27.8620,-80.4450,1.0,2.6,287.0,99.0,'11111222,11111222,11144222' 
FIT,ioos:station:wmo:SIPF1:1,2014-10-02T08:15:00Z,27.8620,-80.4450,1.0,2.2,289.0,99.0,'11111222,11111222,11144222' 
FIT,ioos:station:wmo:SIPF1:1,2014-10-02T08:30:00Z,27.8620,-80.4450,1.0,2.0,279.0,99.0,'11111222,11111222,11144222' 
FIT,ioos:station:wmo:SIPF1:1,2014-10-02T08:45:00Z,27.8620,-80.4450,1.0,2.8,274.0,99.0,'11111222,11111222,11144222' 
FIT,ioos:station:wmo:SIPF1:1,2014-10-02T09:00:00Z,27.8620,-80.4450,1.0,2.5,287.0,99.0,'11111222,11111222,11144222' 
FIT,ioos:station:wmo:SIPF1:1,2014-10-02T09:15:00Z,27.8620,-80.4450,1.0,2.4,290.0,99.0,'11111222,11111222,11144222' 
FIT,ioos:station:wmo:SIPF1:1,2014-10-02T09:30:00Z,27.8620,-80.4450,1.0,2.8,292.0,99.0,'11111222,11111222,11144222' 
FIT,ioos:station:wmo:SIPF1:1,2014-10-02T09:45:00Z,27.8620,-80.4450,1.0,2.8,286.0,99.0,'11111222,11111222,11144222' 
FIT,ioos:station:wmo:SIPF1:1,2014-10-02T10:00:00Z,27.8620,-80.4450,1.0,2.6,273.0,99.0,'11111222,11111222,11144222' 
FIT,ioos:station:wmo:SIPF1:1,2014-10-02T10:15:00Z,27.8620,-80.4450,1.0,2.9,267.0,99.0,'11111222,11111222,11144222' 
FIT,ioos:station:wmo:SIPF1:1,2014-10-02T10:30:00Z,27.8620,-80.4450,1.0,2.8,266.0,99.0,'11111222,11111222,11144222' 
FIT,ioos:station:wmo:SIPF1:1,2014-10-02T10:45:00Z,27.8620,-80.4450,1.0,2.9,275.0,99.0,'11111222,11111222,11144222' 
FIT,ioos:station:wmo:SIPF1:1,2014-10-02T11:00:00Z,27.8620,-80.4450,1.0,2.4,281.0,99.0,'11111222,11111222,11144222' 
FIT,ioos:station:wmo:SIPF1:1,2014-10-02T11:15:00Z,27.8620,-80.4450,1.0,2.6,271.0,99.0,'11111222,11111222,11144222' 
FIT,ioos:station:wmo:SIPF1:1,2014-10-02T11:30:00Z,27.8620,-80.4450,1.0,3.0,264.0,99.0,'11111222,11111222,11144222' 
FIT,ioos:station:wmo:SIPF1:1,2014-10-02T11:45:00Z,27.8620,-80.4450,1.0,2.6,269.0,99.0,'11111222,11111222,11144222' 
FIT,ioos:station:wmo:SIPF1:1,2014-10-02T12:00:00Z,27.8620,-80.4450,1.0,3.0,269.0,99.0,'11111222,11111222,11144222' 
FIT,ioos:station:wmo:SIPF1:1,2014-10-02T12:15:00Z,27.8620,-80.4450,1.0,3.4,268.0,99.0,'11111222,11111222,11144222' 
FIT,ioos:station:wmo:SIPF1:1,2014-10-02T12:30:00Z,27.8620,-80.4450,1.0,3.1,271.0,99.0,'11111222,11111222,11144222' 
FIT,ioos:station:wmo:SIPF1:1,2014-10-02T12:45:00Z,27.8620,-80.4450,1.0,3.0,271.0,99.0,'11111222,11111222,11144222' 
FIT,ioos:station:wmo:SIPF1:1,2014-10-02T13:00:00Z,27.8620,-80.4450,1.0,2.7,289.0,99.0,'11111222,11111222,11144222' 
FIT,ioos:station:wmo:SIPF1:1,2014-10-02T13:15:00Z,27.8620,-80.4450,1.0,2.5,282.0,99.0,'11111222,11111222,11144222' 
FIT,ioos:station:wmo:SIPF1:1,2014-10-02T13:30:00Z,27.8620,-80.4450,1.0,2.1,290.0,99.0,'11111222,11111222,11144222' 
FIT,ioos:station:wmo:SIPF1:1,2014-10-02T13:45:00Z,27.8620,-80.4450,1.0,1.4,283.0,99.0,'11111222,11111222,11144222' 
FIT,ioos:station:wmo:SIPF1:1,2014-10-02T14:00:00Z,27.8620,-80.4450,1.0,0.8,286.0,99.0,'11111222,11111222,11144222' 
FIT,ioos:station:wmo:SIPF1:1,2014-10-02T14:15:00Z,27.8620,-80.4450,1.0,1.0,334.0,99.0,'11111222,11111222,11144222' 
FIT,ioos:station:wmo:SIPF1:1,2014-10-02T14:30:00Z,27.8620,-80.4450,1.0,2.0,352.0,99.0,'11111222,11111222,11144222' 
FIT,ioos:station:wmo:SIPF1:1,2014-10-02T14:45:00Z,27.8620,-80.4450,1.0,2.3,341.0,99.0,'11111222,11111222,11144222' 
FIT,ioos:station:wmo:SIPF1:1,2014-10-02T15:00:00Z,27.8620,-80.4450,1.0,2.4,352.0,99.0,'11111222,11111222,11144222' 
FIT,ioos:station:wmo:SIPF1:1,2014-10-02T15:15:00Z,27.8620,-80.4450,1.0,2.6,5.0,99.0,'11111222,11111222,11144222' 
FIT,ioos:station:wmo:SIPF1:1,2014-10-02T15:30:00Z,27.8620,-80.4450,1.0,2.7,10.0,99.0,'11111222,11111222,11144222' 
FIT,ioos:station:wmo:SIPF1:1,2014-10-02T15:45:00Z,27.8620,-80.4450,1.0,2.9,16.0,99.0,'11111222,11111222,11144222' 
FIT,ioos:station:wmo:SIPF1:1,2014-10-02T16:00:00Z,27.8620,-80.4450,1.0,3.2,16.0,99.0,'11111222,11111222,11144222' 
FIT,ioos:station:wmo:SIPF1:1,2014-10-02T16:15:00Z,27.8620,-80.4450,1.0,3.1,28.0,99.0,'11111222,11111222,11144222' 
FIT,ioos:station:wmo:SIPF1:1,2014-10-02T16:30:00Z,27.8620,-80.4450,1.0,3.0,24.0,99.0,'11111222,11111222,11144222' 
FIT,ioos:station:wmo:SIPF1:1,2014-10-02T16:45:00Z,27.8620,-80.4450,1.0,3.8,20.0,99.0,'11111222,11111222,11144222' 
FIT,ioos:station:wmo:SIPF1:1,2014-10-02T17:00:00Z,27.8620,-80.4450,1.0,3.7,20.0,99.0,'11111222,11111222,11144222' 
FIT,ioos:station:wmo:SIPF1:1,2014-10-02T17:15:00Z,27.8620,-80.4450,1.0,3.7,17.0,99.0,'11111222,11111222,11144222' 
FIT,ioos:station:wmo:SIPF1:1,2014-10-02T17:30:00Z,27.8620,-80.4450,1.0,4.2,24.0,99.0,'11111222,11111222,11144222' 
FIT,ioos:station:wmo:SIPF1:1,2014-10-02T17:45:00Z,27.8620,-80.4450,1.0,3.8,16.0,99.0,'11111222,11111222,11144222' 
FIT,ioos:station:wmo:SIPF1:1,2014-10-02T18:00:00Z,27.8620,-80.4450,1.0,3.6,14.0,99.0,'11111222,11111222,11144222' 
FIT,ioos:station:wmo:SIPF1:1,2014-10-02T18:15:00Z,27.8620,-80.4450,1.0,3.9,20.0,99.0,'11111222,11111222,11144222' 
FIT,ioos:station:wmo:SIPF1:1,2014-10-02T18:30:00Z,27.8620,-80.4450,1.0,3.9,23.0,99.0,'11111222,11111222,11144222' 
FIT,ioos:station:wmo:SIPF1:1,2014-10-02T18:45:00Z,27.8620,-80.4450,1.0,3.9,22.0,99.0,'11111222,11111222,11144222' 
FIT,ioos:station:wmo:SIPF1:1,2014-10-02T19:00:00Z,27.8620,-80.4450,1.0,4.3,23.0,99.0,'11111222,11111222,11144222' 
FIT,ioos:station:wmo:SIPF1:1,2014-10-02T19:15:00Z,27.8620,-80.4450,1.0,4.7,23.0,99.0,'11111222,11111222,11144222' 
FIT,ioos:station:wmo:SIPF1:1,2014-10-02T19:30:00Z,27.8620,-80.4450,1.0,5.5,27.0,99.0,'11111222,11111222,11144222' 
FIT,ioos:station:wmo:SIPF1:1,2014-10-02T19:45:00Z,27.8620,-80.4450,1.0,5.4,28.0,99.0,'11111222,11111222,11144222' 
FIT,ioos:station:wmo:SIPF1:1,2014-10-02T20:00:00Z,27.8620,-80.4450,1.0,5.5,30.0,99.0,'11111222,11111222,11144222' 
FIT,ioos:station:wmo:SIPF1:1,2014-10-02T20:15:00Z,27.8620,-80.4450,1.0,6.1,33.0,99.0,'11111222,11111222,11144222' 
FIT,ioos:station:wmo:SIPF1:1,2014-10-02T20:30:00Z,27.8620,-80.4450,1.0,6.3,32.0,99.0,'11111222,11111222,11144222' 
FIT,ioos:station:wmo:SIPF1:1,2014-10-02T20:45:00Z,27.8620,-80.4450,1.0,6.0,30.0,99.0,'11111222,11111222,11144222' 
FIT,ioos:station:wmo:SIPF1:1,2014-10-02T21:00:00Z,27.8620,-80.4450,1.0,5.8,30.0,99.0,'11111222,11111222,11144222' 
FIT,ioos:station:wmo:SIPF1:1,2014-10-02T21:15:00Z,27.8620,-80.4450,1.0,5.8,31.0,99.0,'11111222,11111222,11144222' 
FIT,ioos:station:wmo:SIPF1:1,2014-10-02T21:30:00Z,27.8620,-80.4450,1.0,5.5,39.0,99.0,'11111222,11111222,11144222' 
FIT,ioos:station:wmo:SIPF1:1,2014-10-02T21:45:00Z,27.8620,-80.4450,1.0,5.7,35.0,99.0,'11111222,11111222,11144222' 
FIT,ioos:station:wmo:SIPF1:1,2014-10-02T22:00:00Z,27.8620,-80.4450,1.0,6.2,35.0,99.0,'11111222,11111222,11144222' 
FIT,ioos:station:wmo:SIPF1:1,2014-10-02T22:15:00Z,27.8620,-80.4450,1.0,6.1,36.0,99.0,'11111222,11111222,11144222' 
FIT,ioos:station:wmo:SIPF1:1,2014-10-02T22:30:00Z,27.8620,-80.4450,1.0,6.2,40.0,99.0,'11111222,11111222,11144222' 
FIT,ioos:station:wmo:SIPF1:1,2014-10-02T22:45:00Z,27.8620,-80.4450,1.0,6.0,47.0,99.0,'11111222,11111222,11144222' 
FIT,ioos:station:wmo:SIPF1:1,2014-10-02T23:00:00Z,27.8620,-80.4450,1.0,6.6,52.0,99.0,'11111222,11111222,11144222' 
FIT,ioos:station:wmo:SIPF1:1,2014-10-02T23:15:00Z,27.8620,-80.4450,1.0,6.4,58.0,99.0,'11111222,11111222,11144222' 
FIT,ioos:station:wmo:SIPF1:1,2014-10-02T23:30:00Z,27.8620,-80.4450,1.0,6.5,56.0,99.0,'11111222,11111222,11144222' 
FIT,ioos:station:wmo:SIPF1:1,2014-10-02T23:45:00Z,27.8620,-80.4450,1.0,6.2,57.0,99.0,'11111222,11111222,11144222' 
FIT,ioos:station:wmo:SIPF1:1,2014-10-03T00:00:00Z,27.8620,-80.4450,1.0,6.3,59.0,99.0,'11111222,11111222,11144222' 
FIT,ioos:station:wmo:SIPF1:1,2014-10-03T00:15:00Z,27.8620,-80.4450,1.0,6.1,65.0,99.0,'11111222,11111222,11144222' 
FIT,ioos:station:wmo:SIPF1:1,2014-10-03T00:30:00Z,27.8620,-80.4450,1.0,6.2,64.0,99.0,'11111222,11111222,11144222' 
FIT,ioos:station:wmo:SIPF1:1,2014-10-03T00:45:00Z,27.8620,-80.4450,1.0,6.2,61.0,99.0,'11111222,11111222,11144222' 
FIT,ioos:station:wmo:SIPF1:1,2014-10-03T01:00:00Z,27.8620,-80.4450,1.0,5.9,63.0,99.0,'11111222,11111222,11144222' 
FIT,ioos:station:wmo:SIPF1:1,2014-10-03T01:15:00Z,27.8620,-80.4450,1.0,5.9,66.0,99.0,'11111222,11111222,11144222' 
FIT,ioos:station:wmo:SIPF1:1,2014-10-03T01:30:00Z,27.8620,-80.4450,1.0,6.0,65.0,99.0,'11111222,11111222,11144222' 
FIT,ioos:station:wmo:SIPF1:1,2014-10-03T01:45:00Z,27.8620,-80.4450,1.0,5.8,68.0,99.0,'11111222,11111222,11144222' 
FIT,ioos:station:wmo:SIPF1:1,2014-10-03T02:00:00Z,27.8620,-80.4450,1.0,5.9,65.0,99.0,'11111222,11111222,11144222' 
FIT,ioos:station:wmo:SIPF1:1,2014-10-03T02:15:00Z,27.8620,-80.4450,1.0,5.6,76.0,99.0,'11111222,11111222,11144222' 
FIT,ioos:station:wmo:SIPF1:1,2014-10-03T02:30:00Z,27.8620,-80.4450,1.0,5.6,77.0,99.0,'11111222,11111222,11144222' 
FIT,ioos:station:wmo:SIPF1:1,2014-10-03T02:45:00Z,27.8620,-80.4450,1.0,5.1,86.0,99.0,'11111222,11111222,11144222' 
FIT,ioos:station:wmo:SIPF1:1,2014-10-03T03:00:00Z,27.8620,-80.4450,1.0,5.0,86.0,99.0,'11111222,11111222,11144222' 
FIT,ioos:station:wmo:SIPF1:1,2014-10-03T03:15:00Z,27.8620,-80.4450,1.0,4.9,90.0,99.0,'11111222,11111222,11144222' 